Time,TemperatureF,DewpointF,PressureIn,WindDirection,WindDirectionDegrees,WindSpeedMPH,WindSpeedGustMPH,Humidity,HourlyPrecipIn,Conditions,Clouds,dailyrainin,SoftwareType,DateUTC
2013-11-07 00:03:00,46.7,17.7,30.25,SSE,162,0.0,0.0,31,0.00,,---,0.00,VWS V14.01,2013-11-07 08:03:00,
2013-11-07 00:08:00,46.3,18.8,30.25,SSW,201,0.0,0.0,33,0.00,,---,0.00,VWS V14.01,2013-11-07 08:08:00,
2013-11-07 00:13:00,46.0,17.8,30.25,SSW,195,1.0,1.0,32,0.00,,---,0.00,VWS V14.01,2013-11-07 08:13:00,
2013-11-07 00:18:00,46.1,18.6,30.25,SSW,204,0.0,0.0,33,0.00,,---,0.00,VWS V14.01,2013-11-07 08:18:00,
2013-11-07 00:23:00,45.6,18.2,30.25,SW,219,0.0,0.0,33,0.00,,---,0.00,VWS V14.01,2013-11-07 08:23:00,
2013-11-07 00:28:00,45.7,17.5,30.25,SW,225,0.0,0.0,32,0.00,,---,0.00,VWS V14.01,2013-11-07 08:28:00,
2013-11-07 00:33:00,45.9,17.0,30.25,WSW,253,0.0,0.0,31,0.00,,---,0.00,VWS V14.01,2013-11-07 08:33:00,
2013-11-07 00:38:00,47.0,16.4,30.25,SW,225,0.0,0.0,29,0.00,,---,0.00,VWS V14.01,2013-11-07 08:38:00,
2013-11-07 00:43:00,46.8,16.2,30.25,SSW,203,0.0,0.0,29,0.00,,---,0.00,VWS V14.01,2013-11-07 08:43:00,
2013-11-07 00:48:00,46.8,16.2,30.25,SSW,205,0.0,0.0,29,0.00,,---,0.00,VWS V14.01,2013-11-07 08:48:00,
2013-11-07 00:53:00,47.2,14.9,30.25,SSW,208,0.0,0.0,27,0.00,,---,0.00,VWS V14.01,2013-11-07 08:53:00,
2013-11-07 00:58:00,47.8,15.5,30.25,SSW,192,0.0,0.0,27,0.00,,---,0.00,VWS V14.01,2013-11-07 08:58:00,
2013-11-07 01:03:00,47.9,15.6,30.25,South,184,0.0,0.0,27,0.00,,---,0.00,VWS V14.01,2013-11-07 09:03:00,
2013-11-07 01:08:00,48.0,15.6,30.25,South,191,0.0,0.0,27,0.00,,---,0.00,VWS V14.01,2013-11-07 09:08:00,
2013-11-07 01:13:00,47.8,16.3,30.25,SSW,198,0.0,0.0,28,0.00,,---,0.00,VWS V14.01,2013-11-07 09:13:00,
2013-11-07 01:18:00,47.5,16.0,30.25,SSW,201,0.0,0.0,28,0.00,,---,0.00,VWS V14.01,2013-11-07 09:18:00,
2013-11-07 01:23:00,46.5,17.5,30.25,SE,128,0.0,0.0,31,0.00,,---,0.00,VWS V14.01,2013-11-07 09:23:00,
2013-11-07 01:28:00,46.4,17.4,30.24,SE,131,0.0,0.0,31,0.00,,---,0.00,VWS V14.01,2013-11-07 09:28:00,
2013-11-07 01:33:00,45.8,18.4,30.24,ESE,121,0.0,0.0,33,0.00,,---,0.00,VWS V14.01,2013-11-07 09:33:00,
2013-11-07 01:38:00,45.4,18.0,30.24,SE,131,0.0,0.0,33,0.00,,---,0.00,VWS V14.01,2013-11-07 09:38:00,
2013-11-07 01:43:00,45.4,17.3,30.24,SE,143,0.0,0.0,32,0.00,,---,0.00,VWS V14.01,2013-11-07 09:43:00,
2013-11-07 01:48:00,45.6,17.5,30.24,SE,143,0.0,0.0,32,0.00,,---,0.00,VWS V14.01,2013-11-07 09:48:00,
2013-11-07 01:53:00,45.5,17.4,30.24,SSE,167,0.0,0.0,32,0.00,,---,0.00,VWS V14.01,2013-11-07 09:53:00,
2013-11-07 01:58:00,45.1,17.7,30.24,SSW,195,0.0,0.0,33,0.00,,---,0.00,VWS V14.01,2013-11-07 09:58:00,
2013-11-07 02:03:00,44.5,18.6,30.24,SSE,158,0.0,0.0,35,0.00,,---,0.00,VWS V14.01,2013-11-07 10:03:00,
2013-11-07 02:08:00,44.2,17.6,30.24,SE,143,0.0,0.0,34,0.00,,---,0.00,VWS V14.01,2013-11-07 10:08:00,
2013-11-07 02:13:00,44.2,17.6,30.24,SSE,167,0.0,0.0,34,0.00,,---,0.00,VWS V14.01,2013-11-07 10:13:00,
2013-11-07 02:18:00,43.9,18.0,30.24,South,188,0.0,0.0,35,0.00,,---,0.00,VWS V14.01,2013-11-07 10:18:00,
2013-11-07 02:23:00,43.5,18.3,30.24,South,188,3.0,3.0,36,0.00,,---,0.00,VWS V14.01,2013-11-07 10:23:00,
2013-11-07 02:28:00,43.4,17.6,30.24,South,184,0.0,3.0,35,0.00,,---,0.00,VWS V14.01,2013-11-07 10:28:00,
2013-11-07 02:33:00,43.6,17.8,30.24,SSE,167,0.0,1.0,35,0.00,,---,0.00,VWS V14.01,2013-11-07 10:33:00,
2013-11-07 02:38:00,44.1,17.5,30.24,South,169,0.0,2.0,34,0.00,,---,0.00,VWS V14.01,2013-11-07 10:38:00,
2013-11-07 02:43:00,44.3,17.0,30.24,South,172,0.0,2.0,33,0.00,,---,0.00,VWS V14.01,2013-11-07 10:43:00,
2013-11-07 02:48:00,44.4,17.8,30.24,South,179,3.0,3.0,34,0.00,,---,0.00,VWS V14.01,2013-11-07 10:48:00,
2013-11-07 02:53:00,44.8,17.5,30.24,South,186,2.0,3.0,33,0.00,,---,0.00,VWS V14.01,2013-11-07 10:53:00,
2013-11-07 02:58:00,44.8,17.5,30.24,South,184,0.0,3.0,33,0.00,,---,0.00,VWS V14.01,2013-11-07 10:58:00,
2013-11-07 03:03:00,44.3,18.4,30.23,South,183,0.0,0.0,35,0.00,,---,0.00,VWS V14.01,2013-11-07 11:03:00,
2013-11-07 03:08:00,44.0,18.1,30.23,SSE,162,0.0,0.0,35,0.00,,---,0.00,VWS V14.01,2013-11-07 11:08:00,
2013-11-07 03:13:00,43.9,18.7,30.23,SE,145,0.0,0.0,36,0.00,,---,0.00,VWS V14.01,2013-11-07 11:13:00,
2013-11-07 03:18:00,43.6,18.4,30.23,SSE,155,0.0,0.0,36,0.00,,---,0.00,VWS V14.01,2013-11-07 11:18:00,
2013-11-07 03:23:00,43.5,18.3,30.24,SSE,153,0.0,0.0,36,0.00,,---,0.00,VWS V14.01,2013-11-07 11:23:00,
2013-11-07 03:28:00,43.7,18.5,30.24,SSE,157,0.0,0.0,36,0.00,,---,0.00,VWS V14.01,2013-11-07 11:28:00,
2013-11-07 03:33:00,43.7,18.5,30.23,SSE,167,0.0,0.0,36,0.00,,---,0.00,VWS V14.01,2013-11-07 11:33:00,
2013-11-07 03:37:00,43.6,18.4,30.23,SSE,166,0.0,0.0,36,0.00,,---,0.00,VWS V14.01,2013-11-07 11:37:00,
2013-11-07 03:42:00,43.9,18.7,30.23,SE,134,0.0,0.0,36,0.00,,---,0.00,VWS V14.01,2013-11-07 11:42:00,
2013-11-07 03:47:00,43.9,18.7,30.23,SSE,158,0.0,0.0,36,0.00,,---,0.00,VWS V14.01,2013-11-07 11:47:00,
2013-11-07 03:52:00,43.8,18.6,30.23,South,184,0.0,0.0,36,0.00,,---,0.00,VWS V14.01,2013-11-07 11:52:00,
2013-11-07 03:57:00,43.5,19.0,30.23,South,179,0.0,0.0,37,0.00,,---,0.00,VWS V14.01,2013-11-07 11:57:00,
2013-11-07 04:02:00,43.5,18.3,30.23,SSE,161,0.0,1.0,36,0.00,,---,0.00,VWS V14.01,2013-11-07 12:02:00,
2013-11-07 04:07:00,44.0,18.1,30.23,SSE,160,0.0,1.0,35,0.00,,---,0.00,VWS V14.01,2013-11-07 12:07:00,
2013-11-07 04:12:00,44.2,18.3,30.23,SSE,159,0.0,1.0,35,0.00,,---,0.00,VWS V14.01,2013-11-07 12:12:00,
2013-11-07 04:17:00,44.2,18.3,30.23,SSE,166,0.0,0.0,35,0.00,,---,0.00,VWS V14.01,2013-11-07 12:17:00,
2013-11-07 04:22:00,44.1,18.2,30.23,SSE,166,0.0,0.0,35,0.00,,---,0.00,VWS V14.01,2013-11-07 12:22:00,
2013-11-07 04:27:00,44.6,18.7,30.23,SSE,167,0.0,1.0,35,0.00,,---,0.00,VWS V14.01,2013-11-07 12:27:00,
2013-11-07 04:33:00,44.4,18.5,30.23,SSE,164,0.0,0.0,35,0.00,,---,0.00,VWS V14.01,2013-11-07 12:33:00,
2013-11-07 04:38:00,44.2,19.0,30.23,South,169,0.0,0.0,36,0.00,,---,0.00,VWS V14.01,2013-11-07 12:38:00,
2013-11-07 04:43:00,44.0,18.8,30.23,South,169,0.0,1.0,36,0.00,,---,0.00,VWS V14.01,2013-11-07 12:43:00,
2013-11-07 04:48:00,44.1,18.9,30.23,SSE,165,0.0,0.0,36,0.00,,---,0.00,VWS V14.01,2013-11-07 12:48:00,
2013-11-07 04:53:00,44.1,19.5,30.23,South,176,0.0,1.0,37,0.00,,---,0.00,VWS V14.01,2013-11-07 12:53:00,
2013-11-07 04:58:00,44.1,18.9,30.23,SE,142,0.0,1.0,36,0.00,,---,0.00,VWS V14.01,2013-11-07 12:58:00,
2013-11-07 05:03:00,44.4,19.1,30.23,SE,130,0.0,0.0,36,0.00,,---,0.00,VWS V14.01,2013-11-07 13:03:00,
2013-11-07 05:08:00,44.2,19.6,30.23,SSE,165,0.0,0.0,37,0.00,,---,0.00,VWS V14.01,2013-11-07 13:08:00,
2013-11-07 05:13:00,43.8,19.9,30.23,SSE,165,0.0,0.0,38,0.00,,---,0.00,VWS V14.01,2013-11-07 13:13:00,
2013-11-07 05:18:00,43.3,20.0,30.23,SSE,154,0.0,0.0,39,0.00,,---,0.00,VWS V14.01,2013-11-07 13:18:00,
2013-11-07 05:23:00,43.2,19.9,30.23,South,173,0.0,0.0,39,0.00,,---,0.00,VWS V14.01,2013-11-07 13:23:00,
2013-11-07 05:28:00,43.1,20.4,30.23,SSE,148,0.0,0.0,40,0.00,,---,0.00,VWS V14.01,2013-11-07 13:28:00,
2013-11-07 05:33:00,43.2,19.9,30.23,SE,139,0.0,0.0,39,0.00,,---,0.00,VWS V14.01,2013-11-07 13:33:00,
2013-11-07 05:38:00,43.1,20.4,30.23,SSW,198,0.0,0.0,40,0.00,,---,0.00,VWS V14.01,2013-11-07 13:38:00,
2013-11-07 05:43:00,42.6,21.1,30.23,SSW,193,0.0,0.0,42,0.00,,---,0.00,VWS V14.01,2013-11-07 13:43:00,
2013-11-07 05:48:00,41.9,21.6,30.23,SSW,199,0.0,0.0,44,0.00,,---,0.00,VWS V14.01,2013-11-07 13:48:00,
2013-11-07 05:53:00,41.4,20.6,30.23,WSW,238,0.0,0.0,43,0.00,,---,0.00,VWS V14.01,2013-11-07 13:53:00,
2013-11-07 05:58:00,41.1,20.9,30.23,WSW,238,0.0,0.0,44,0.00,,---,0.00,VWS V14.01,2013-11-07 13:58:00,
2013-11-07 06:03:00,40.8,20.6,30.23,WSW,238,0.0,0.0,44,0.00,,---,0.00,VWS V14.01,2013-11-07 14:03:00,
2013-11-07 06:08:00,40.8,20.6,30.23,SW,225,0.0,0.0,44,0.00,,---,0.00,VWS V14.01,2013-11-07 14:08:00,
2013-11-07 06:13:00,41.0,20.8,30.23,SW,225,0.0,0.0,44,0.00,,---,0.00,VWS V14.01,2013-11-07 14:13:00,
2013-11-07 06:18:00,41.2,21.0,30.23,SW,225,0.0,0.0,44,0.00,,---,0.00,VWS V14.01,2013-11-07 14:18:00,
2013-11-07 06:23:00,41.0,21.3,30.23,SW,225,0.0,0.0,45,0.00,,---,0.00,VWS V14.01,2013-11-07 14:23:00,
2013-11-07 06:28:00,40.3,21.7,30.23,SE,145,0.0,0.0,47,0.00,,---,0.00,VWS V14.01,2013-11-07 14:28:00,
2013-11-07 06:33:00,40.4,22.3,30.23,SE,146,0.0,0.0,48,0.00,,---,0.00,VWS V14.01,2013-11-07 14:33:00,
2013-11-07 06:38:00,40.8,22.6,30.23,SE,145,0.0,0.0,48,0.00,,---,0.00,VWS V14.01,2013-11-07 14:38:00,
2013-11-07 06:43:00,40.7,22.5,30.23,SE,145,0.0,0.0,48,0.00,,---,0.00,VWS V14.01,2013-11-07 14:43:00,
2013-11-07 06:48:00,40.0,22.4,30.23,SE,145,0.0,0.0,49,0.00,,---,0.00,VWS V14.01,2013-11-07 14:48:00,
2013-11-07 06:53:00,39.5,22.9,30.24,SE,145,0.0,0.0,51,0.00,,---,0.00,VWS V14.01,2013-11-07 14:53:00,
2013-11-07 06:58:00,39.5,23.4,30.23,SE,145,0.0,0.0,52,0.00,,---,0.00,VWS V14.01,2013-11-07 14:58:00,
2013-11-07 07:03:00,39.9,23.7,30.24,SE,145,0.0,0.0,52,0.00,,---,0.00,VWS V14.01,2013-11-07 15:03:00,
2013-11-07 07:08:00,40.1,23.4,30.24,SE,145,0.0,0.0,51,0.00,,---,0.00,VWS V14.01,2013-11-07 15:08:00,
2013-11-07 07:13:00,40.7,23.5,30.24,SE,145,0.0,0.0,50,0.00,,---,0.00,VWS V14.01,2013-11-07 15:13:00,
2013-11-07 07:18:00,41.0,23.8,30.24,WSW,255,0.0,0.0,50,0.00,,---,0.00,VWS V14.01,2013-11-07 15:18:00,
2013-11-07 07:23:00,41.5,23.3,30.24,West,264,0.0,0.0,48,0.00,,---,0.00,VWS V14.01,2013-11-07 15:23:00,
2013-11-07 07:28:00,42.0,22.2,30.24,West,273,0.0,0.0,45,0.00,,---,0.00,VWS V14.01,2013-11-07 15:28:00,
2013-11-07 07:33:00,42.4,22.0,30.24,West,261,0.0,0.0,44,0.00,,---,0.00,VWS V14.01,2013-11-07 15:33:00,
2013-11-07 07:38:00,42.7,21.8,30.25,West,263,0.0,0.0,43,0.00,,---,0.00,VWS V14.01,2013-11-07 15:38:00,
2013-11-07 07:43:00,43.1,21.6,30.25,SW,222,0.0,0.0,42,0.00,,---,0.00,VWS V14.01,2013-11-07 15:43:00,
2013-11-07 07:48:00,43.7,22.1,30.25,SW,222,0.0,0.0,42,0.00,,---,0.00,VWS V14.01,2013-11-07 15:48:00,
2013-11-07 07:53:00,44.0,21.2,30.25,WSW,250,0.0,0.0,40,0.00,,---,0.00,VWS V14.01,2013-11-07 15:53:00,
2013-11-07 07:58:00,44.4,21.6,30.25,West,263,0.0,0.0,40,0.00,,---,0.00,VWS V14.01,2013-11-07 15:58:00,
2013-11-07 08:03:00,45.3,21.8,30.25,West,262,0.0,0.0,39,0.00,,---,0.00,VWS V14.01,2013-11-07 16:03:00,
2013-11-07 08:08:00,46.0,21.8,30.25,West,263,0.0,0.0,38,0.00,,---,0.00,VWS V14.01,2013-11-07 16:08:00,
2013-11-07 08:13:00,47.0,22.1,30.25,West,262,0.0,0.0,37,0.00,,---,0.00,VWS V14.01,2013-11-07 16:13:00,
2013-11-07 08:18:00,48.3,22.6,30.25,West,263,0.0,0.0,36,0.00,,---,0.00,VWS V14.01,2013-11-07 16:18:00,
2013-11-07 08:23:00,48.9,21.8,30.25,West,263,0.0,0.0,34,0.00,,---,0.00,VWS V14.01,2013-11-07 16:23:00,
2013-11-07 08:28:00,49.6,20.2,30.25,WSW,243,0.0,0.0,31,0.00,,---,0.00,VWS V14.01,2013-11-07 16:28:00,
2013-11-07 08:33:00,50.3,20.1,30.25,WSW,243,0.0,0.0,30,0.00,,---,0.00,VWS V14.01,2013-11-07 16:33:00,
2013-11-07 08:38:00,51.4,20.2,30.25,ESE,104,0.0,0.0,29,0.00,,---,0.00,VWS V14.01,2013-11-07 16:38:00,
2013-11-07 08:43:00,52.2,20.1,30.25,ESE,112,0.0,0.0,28,0.00,,---,0.00,VWS V14.01,2013-11-07 16:43:00,
2013-11-07 08:48:00,53.0,19.9,30.25,East,89,0.0,0.0,27,0.00,,---,0.00,VWS V14.01,2013-11-07 16:48:00,
2013-11-07 08:53:00,53.7,20.5,30.25,East,101,0.0,0.0,27,0.00,,---,0.00,VWS V14.01,2013-11-07 16:53:00,
2013-11-07 08:58:00,54.5,20.3,30.25,East,94,0.0,0.0,26,0.00,,---,0.00,VWS V14.01,2013-11-07 16:58:00,
2013-11-07 09:03:00,54.9,19.8,30.25,NE,43,0.0,0.0,25,0.00,,---,0.00,VWS V14.01,2013-11-07 17:03:00,
2013-11-07 09:08:00,55.2,18.1,30.25,NNE,33,0.0,0.0,23,0.00,,---,0.00,VWS V14.01,2013-11-07 17:08:00,
2013-11-07 09:13:00,55.6,18.4,30.25,West,277,0.0,0.0,23,0.00,,---,0.00,VWS V14.01,2013-11-07 17:13:00,
2013-11-07 09:18:00,56.1,19.8,30.25,NNW,333,0.0,0.0,24,0.00,,---,0.00,VWS V14.01,2013-11-07 17:18:00,
2013-11-07 09:23:00,56.7,19.3,30.25,West,278,0.0,0.0,23,0.00,,---,0.00,VWS V14.01,2013-11-07 17:23:00,
2013-11-07 09:28:00,57.2,19.8,30.25,WNW,297,0.0,0.0,23,0.00,,---,0.00,VWS V14.01,2013-11-07 17:28:00,
2013-11-07 09:33:00,57.9,19.3,30.24,WNW,303,0.0,0.0,22,0.00,,---,0.00,VWS V14.01,2013-11-07 17:33:00,
2013-11-07 09:38:00,58.4,18.6,30.24,NW,309,0.0,0.0,21,0.00,,---,0.00,VWS V14.01,2013-11-07 17:38:00,
2013-11-07 09:43:00,58.8,17.8,30.23,West,260,0.0,0.0,20,0.00,,---,0.00,VWS V14.01,2013-11-07 17:43:00,
2013-11-07 09:48:00,59.4,18.3,30.23,NW,311,0.0,1.0,20,0.00,,---,0.00,VWS V14.01,2013-11-07 17:48:00,
2013-11-07 09:53:00,59.8,17.5,30.23,North,357,0.0,1.0,19,0.00,,---,0.00,VWS V14.01,2013-11-07 17:53:00,
2013-11-07 09:58:00,60.1,17.7,30.23,NE,39,0.0,1.0,19,0.00,,---,0.00,VWS V14.01,2013-11-07 17:58:00,
2013-11-07 10:00:00,60.3,17.9,30.23,NNW,342,1.0,1.0,19,0.00,,---,0.00,VWS V14.01,2013-11-07 18:00:00,
2013-11-07 10:05:00,60.6,18.1,30.23,NE,51,0.0,1.0,19,0.00,,---,0.00,VWS V14.01,2013-11-07 18:05:00,
2013-11-07 10:10:00,60.9,17.1,30.22,North,354,0.0,2.0,18,0.00,,---,0.00,VWS V14.01,2013-11-07 18:10:00,
2013-11-07 10:15:00,61.3,17.5,30.22,WNW,291,0.0,2.0,18,0.00,,---,0.00,VWS V14.01,2013-11-07 18:15:00,
2013-11-07 10:20:00,61.6,17.7,30.22,NW,326,0.0,2.0,18,0.00,,---,0.00,VWS V14.01,2013-11-07 18:20:00,
2013-11-07 10:25:00,61.8,17.9,30.22,NW,314,0.0,2.0,18,0.00,,---,0.00,VWS V14.01,2013-11-07 18:25:00,
2013-11-07 10:30:00,62.2,16.9,30.22,NW,321,2.0,3.0,17,0.00,,---,0.00,VWS V14.01,2013-11-07 18:30:00,
2013-11-07 10:35:00,62.1,16.8,30.22,NE,36,1.0,3.0,17,0.00,,---,0.00,VWS V14.01,2013-11-07 18:35:00,
2013-11-07 10:40:00,62.2,16.9,30.22,NNE,18,0.0,3.0,17,0.00,,---,0.00,VWS V14.01,2013-11-07 18:40:00,
2013-11-07 10:45:00,62.6,17.2,30.21,West,281,0.0,1.0,17,0.00,,---,0.00,VWS V14.01,2013-11-07 18:45:00,
2013-11-07 10:50:00,62.8,17.4,30.21,WSW,246,0.0,3.0,17,0.00,,---,0.00,VWS V14.01,2013-11-07 18:50:00,
2013-11-07 10:55:00,63.3,17.8,30.21,NE,37,1.0,3.0,17,0.00,,---,0.00,VWS V14.01,2013-11-07 18:55:00,
2013-11-07 11:00:00,63.3,17.8,30.20,NNE,18,0.0,1.0,17,0.00,,---,0.00,VWS V14.01,2013-11-07 19:00:00,
2013-11-07 11:05:00,64.2,19.8,30.20,SW,231,0.0,1.0,18,0.00,,---,0.00,VWS V14.01,2013-11-07 19:05:00,
2013-11-07 11:10:00,65.2,20.7,30.20,SW,214,0.0,1.0,18,0.00,,---,0.00,VWS V14.01,2013-11-07 19:10:00,
2013-11-07 11:15:00,65.8,18.4,30.19,SE,127,1.0,3.0,16,0.00,,---,0.00,VWS V14.01,2013-11-07 19:15:00,
2013-11-07 11:20:00,65.4,19.5,30.19,ESE,105,0.0,4.0,17,0.00,,---,0.00,VWS V14.01,2013-11-07 19:20:00,
2013-11-07 11:25:00,66.0,18.5,30.19,East,94,1.0,4.0,16,0.00,,---,0.00,VWS V14.01,2013-11-07 19:25:00,
2013-11-07 11:30:00,65.6,18.2,30.18,NE,41,1.0,3.0,16,0.00,,---,0.00,VWS V14.01,2013-11-07 19:30:00,
2013-11-07 11:36:00,65.3,19.4,30.18,NNW,335,0.0,4.0,17,0.00,,---,0.00,VWS V14.01,2013-11-07 19:36:00,
2013-11-07 11:41:00,65.6,19.6,30.18,NE,46,0.0,4.0,17,0.00,,---,0.00,VWS V14.01,2013-11-07 19:41:00,
2013-11-07 11:46:00,66.3,20.2,30.17,West,277,0.0,0.0,17,0.00,,---,0.00,VWS V14.01,2013-11-07 19:46:00,
2013-11-07 11:51:00,66.7,20.5,30.17,NE,49,0.0,1.0,17,0.00,,---,0.00,VWS V14.01,2013-11-07 19:51:00,
2013-11-07 11:56:00,66.9,20.7,30.17,ENE,77,0.0,1.0,17,0.00,,---,0.00,VWS V14.01,2013-11-07 19:56:00,
2013-11-07 12:01:00,66.8,20.6,30.17,East,83,0.0,2.0,17,0.00,,---,0.00,VWS V14.01,2013-11-07 20:01:00,
2013-11-07 12:06:00,66.8,20.6,30.16,NNE,16,2.0,4.0,17,0.00,,---,0.00,VWS V14.01,2013-11-07 20:06:00,
2013-11-07 12:11:00,66.7,21.9,30.16,NW,316,1.0,4.0,18,0.00,,---,0.00,VWS V14.01,2013-11-07 20:11:00,
2013-11-07 12:16:00,67.0,20.8,30.16,NNE,30,5.0,5.0,17,0.00,,---,0.00,VWS V14.01,2013-11-07 20:16:00,
2013-11-07 12:21:00,66.8,20.6,30.15,NNW,338,5.0,7.0,17,0.00,,---,0.00,VWS V14.01,2013-11-07 20:21:00,
2013-11-07 12:26:00,66.7,20.5,30.15,North,11,4.0,7.0,17,0.00,,---,0.00,VWS V14.01,2013-11-07 20:26:00,
2013-11-07 12:31:00,66.9,20.7,30.14,NE,51,3.0,3.0,17,0.00,,---,0.00,VWS V14.01,2013-11-07 20:31:00,
2013-11-07 12:36:00,66.9,20.7,30.14,NNE,20,5.0,5.0,17,0.00,,---,0.00,VWS V14.01,2013-11-07 20:36:00,
2013-11-07 12:41:00,67.0,20.8,30.13,NNW,344,3.0,6.0,17,0.00,,---,0.00,VWS V14.01,2013-11-07 20:41:00,
2013-11-07 12:46:00,67.1,20.9,30.13,North,5,5.0,5.0,17,0.00,,---,0.00,VWS V14.01,2013-11-07 20:46:00,
2013-11-07 12:51:00,67.4,21.1,30.13,NNW,330,2.0,5.0,17,0.00,,---,0.00,VWS V14.01,2013-11-07 20:51:00,
2013-11-07 12:56:00,67.4,21.1,30.13,NE,39,1.0,5.0,17,0.00,,---,0.00,VWS V14.01,2013-11-07 20:56:00,
2013-11-07 13:01:00,67.3,21.0,30.13,NNE,18,2.0,3.0,17,0.00,,---,0.00,VWS V14.01,2013-11-07 21:01:00,
2013-11-07 13:06:00,67.4,21.1,30.13,NNE,23,2.0,5.0,17,0.00,,---,0.00,VWS V14.01,2013-11-07 21:06:00,
2013-11-07 13:11:00,67.6,21.3,30.12,NNE,25,1.0,5.0,17,0.00,,---,0.00,VWS V14.01,2013-11-07 21:11:00,
2013-11-07 13:16:00,68.1,21.7,30.12,ESE,113,0.0,1.0,17,0.00,,---,0.00,VWS V14.01,2013-11-07 21:16:00,
2013-11-07 13:21:00,68.4,21.9,30.12,NNE,23,2.0,2.0,17,0.00,,---,0.00,VWS V14.01,2013-11-07 21:21:00,
2013-11-07 13:26:00,68.3,21.8,30.12,NW,326,0.0,5.0,17,0.00,,---,0.00,VWS V14.01,2013-11-07 21:26:00,
2013-11-07 13:31:00,68.3,21.8,30.12,NE,51,0.0,0.0,17,0.00,,---,0.00,VWS V14.01,2013-11-07 21:31:00,
2013-11-07 13:36:00,68.8,22.2,30.11,NE,55,0.0,5.0,17,0.00,,---,0.00,VWS V14.01,2013-11-07 21:36:00,
2013-11-07 13:41:00,68.6,22.1,30.11,NNE,33,1.0,5.0,17,0.00,,---,0.00,VWS V14.01,2013-11-07 21:41:00,
2013-11-07 13:46:00,68.6,22.1,30.11,SE,130,1.0,2.0,17,0.00,,---,0.00,VWS V14.01,2013-11-07 21:46:00,
2013-11-07 13:51:00,69.0,22.4,30.11,East,93,0.0,2.0,17,0.00,,---,0.00,VWS V14.01,2013-11-07 21:51:00,
2013-11-07 13:56:00,69.0,21.0,30.11,NNW,335,0.0,4.0,16,0.00,,---,0.00,VWS V14.01,2013-11-07 21:56:00,
2013-11-07 14:01:00,69.0,21.0,30.11,East,98,2.0,2.0,16,0.00,,---,0.00,VWS V14.01,2013-11-07 22:01:00,
2013-11-07 14:06:00,69.4,21.3,30.11,NE,42,1.0,3.0,16,0.00,,---,0.00,VWS V14.01,2013-11-07 22:06:00,
2013-11-07 14:11:00,69.3,21.2,30.10,SE,134,0.0,3.0,16,0.00,,---,0.00,VWS V14.01,2013-11-07 22:11:00,
2013-11-07 14:16:00,69.4,21.3,30.10,WSW,245,0.0,0.0,16,0.00,,---,0.00,VWS V14.01,2013-11-07 22:16:00,
2013-11-07 14:21:00,69.9,21.7,30.10,North,8,0.0,2.0,16,0.00,,---,0.00,VWS V14.01,2013-11-07 22:21:00,
2013-11-07 14:26:00,69.7,20.0,30.10,ENE,69,0.0,4.0,15,0.00,,---,0.00,VWS V14.01,2013-11-07 22:26:00,
2013-11-07 14:31:00,69.5,21.4,30.10,ENE,61,0.0,2.0,16,0.00,,---,0.00,VWS V14.01,2013-11-07 22:31:00,
2013-11-07 14:36:00,69.4,21.3,30.10,ENE,69,0.0,2.0,16,0.00,,---,0.00,VWS V14.01,2013-11-07 22:36:00,
2013-11-07 14:41:00,69.1,21.1,30.09,SE,129,0.0,4.0,16,0.00,,---,0.00,VWS V14.01,2013-11-07 22:41:00,
2013-11-07 14:46:00,69.0,21.0,30.09,SE,131,2.0,2.0,16,0.00,,---,0.00,VWS V14.01,2013-11-07 22:46:00,
2013-11-07 14:51:00,69.1,21.1,30.08,SSE,155,0.0,3.0,16,0.00,,---,0.00,VWS V14.01,2013-11-07 22:51:00,
2013-11-07 14:56:00,69.7,21.5,30.08,ENE,60,0.0,3.0,16,0.00,,---,0.00,VWS V14.01,2013-11-07 22:56:00,
2013-11-07 15:01:00,70.1,21.9,30.08,East,100,0.0,0.0,16,0.00,,---,0.00,VWS V14.01,2013-11-07 23:01:00,
2013-11-07 15:06:00,70.4,20.6,30.09,NE,56,0.0,1.0,15,0.00,,---,0.00,VWS V14.01,2013-11-07 23:06:00,
2013-11-07 15:11:00,70.4,20.6,30.09,ENE,70,0.0,2.0,15,0.00,,---,0.00,VWS V14.01,2013-11-07 23:11:00,
2013-11-07 15:16:00,70.3,20.5,30.08,NE,49,2.0,2.0,15,0.00,,---,0.00,VWS V14.01,2013-11-07 23:16:00,
2013-11-07 15:21:00,70.2,20.4,30.08,NNE,26,0.0,2.0,15,0.00,,---,0.00,VWS V14.01,2013-11-07 23:21:00,
2013-11-07 15:26:00,70.3,20.5,30.08,NNE,13,0.0,2.0,15,0.00,,---,0.00,VWS V14.01,2013-11-07 23:26:00,
2013-11-07 15:32:00,70.5,20.7,30.08,NNW,342,2.0,2.0,15,0.00,,---,0.00,VWS V14.01,2013-11-07 23:32:00,
2013-11-07 15:37:00,70.2,20.4,30.08,ENE,60,0.0,3.0,15,0.00,,---,0.00,VWS V14.01,2013-11-07 23:37:00,
2013-11-07 15:42:00,70.2,21.9,30.08,NW,309,0.0,3.0,16,0.00,,---,0.00,VWS V14.01,2013-11-07 23:42:00,
2013-11-07 15:47:00,70.2,21.9,30.08,North,5,0.0,0.0,16,0.00,,---,0.00,VWS V14.01,2013-11-07 23:47:00,
2013-11-07 15:52:00,69.9,21.7,30.08,NE,44,0.0,0.0,16,0.00,,---,0.00,VWS V14.01,2013-11-07 23:52:00,
2013-11-07 15:57:00,69.4,21.3,30.08,NE,44,0.0,0.0,16,0.00,,---,0.00,VWS V14.01,2013-11-07 23:57:00,
2013-11-07 16:02:00,69.1,21.1,30.07,North,8,0.0,0.0,16,0.00,,---,0.00,VWS V14.01,2013-11-08 00:02:00,
2013-11-07 16:07:00,68.9,20.9,30.07,NE,36,0.0,0.0,16,0.00,,---,0.00,VWS V14.01,2013-11-08 00:07:00,
2013-11-07 16:12:00,68.9,20.9,30.07,NE,35,0.0,0.0,16,0.00,,---,0.00,VWS V14.01,2013-11-08 00:12:00,
2013-11-07 16:17:00,69.4,21.3,30.07,NE,36,0.0,0.0,16,0.00,,---,0.00,VWS V14.01,2013-11-08 00:17:00,
2013-11-07 16:22:00,69.3,22.6,30.07,NE,35,0.0,0.0,17,0.00,,---,0.00,VWS V14.01,2013-11-08 00:22:00,
2013-11-07 16:27:00,68.8,23.6,30.07,NNE,33,0.0,0.0,18,0.00,,---,0.00,VWS V14.01,2013-11-08 00:27:00,
2013-11-07 16:32:00,68.3,21.8,30.07,NNE,33,0.0,0.0,17,0.00,,---,0.00,VWS V14.01,2013-11-08 00:32:00,
2013-11-07 16:37:00,67.9,21.5,30.07,NNE,33,0.0,0.0,17,0.00,,---,0.00,VWS V14.01,2013-11-08 00:37:00,
2013-11-07 16:42:00,67.5,23.8,30.07,NNE,33,0.0,0.0,19,0.00,,---,0.00,VWS V14.01,2013-11-08 00:42:00,
2013-11-07 16:47:00,67.0,24.6,30.07,NE,34,0.0,0.0,20,0.00,,---,0.00,VWS V14.01,2013-11-08 00:47:00,
2013-11-07 16:52:00,66.3,25.2,30.07,South,170,0.0,0.0,21,0.00,,---,0.00,VWS V14.01,2013-11-08 00:52:00,
2013-11-07 16:57:00,65.5,25.7,30.07,South,170,0.0,0.0,22,0.00,,---,0.00,VWS V14.01,2013-11-08 00:57:00,
2013-11-07 17:02:00,64.7,25.0,30.07,South,170,0.0,0.0,22,0.00,,---,0.00,VWS V14.01,2013-11-08 01:02:00,
2013-11-07 17:07:00,64.0,26.5,30.07,SSW,208,2.0,2.0,24,0.00,,---,0.00,VWS V14.01,2013-11-08 01:07:00,
2013-11-07 17:12:00,63.3,26.9,30.07,SSW,200,2.0,2.0,25,0.00,,---,0.00,VWS V14.01,2013-11-08 01:12:00,
2013-11-07 17:17:00,62.7,27.4,30.07,South,179,2.0,2.0,26,0.00,,---,0.00,VWS V14.01,2013-11-08 01:17:00,
2013-11-07 17:22:00,62.1,26.8,30.07,South,188,2.0,2.0,26,0.00,,---,0.00,VWS V14.01,2013-11-08 01:22:00,
2013-11-07 17:27:00,61.5,27.2,30.07,South,186,2.0,2.0,27,0.00,,---,0.00,VWS V14.01,2013-11-08 01:27:00,
2013-11-07 17:32:00,61.0,27.7,30.06,SSW,195,0.0,2.0,28,0.00,,---,0.00,VWS V14.01,2013-11-08 01:32:00,
2013-11-07 17:37:00,60.7,27.4,30.06,South,177,0.0,2.0,28,0.00,,---,0.00,VWS V14.01,2013-11-08 01:37:00,
2013-11-07 17:42:00,60.3,27.1,30.06,South,170,0.0,2.0,28,0.00,,---,0.00,VWS V14.01,2013-11-08 01:42:00,
2013-11-07 17:47:00,60.0,26.8,30.07,South,170,0.0,0.0,28,0.00,,---,0.00,VWS V14.01,2013-11-08 01:47:00,
2013-11-07 17:52:00,59.9,26.7,30.07,South,173,0.0,0.0,28,0.00,,---,0.00,VWS V14.01,2013-11-08 01:52:00,
2013-11-07 17:57:00,59.6,26.5,30.07,South,181,0.0,0.0,28,0.00,,---,0.00,VWS V14.01,2013-11-08 01:57:00,
2013-11-07 18:02:00,59.3,25.4,30.07,SSE,163,0.0,0.0,27,0.00,,---,0.00,VWS V14.01,2013-11-08 02:02:00,
2013-11-07 18:07:00,59.1,25.2,30.07,South,183,1.0,1.0,27,0.00,,---,0.00,VWS V14.01,2013-11-08 02:07:00,
2013-11-07 18:12:00,58.9,24.1,30.07,South,190,0.0,1.0,26,0.00,,---,0.00,VWS V14.01,2013-11-08 02:12:00,
2013-11-07 18:17:00,58.8,24.0,30.07,SSW,194,0.0,0.0,26,0.00,,---,0.00,VWS V14.01,2013-11-08 02:17:00,
2013-11-07 18:22:00,58.5,24.7,30.07,South,183,0.0,0.0,27,0.00,,---,0.00,VWS V14.01,2013-11-08 02:22:00,
2013-11-07 18:27:00,58.2,24.4,30.07,South,179,1.0,2.0,27,0.00,,---,0.00,VWS V14.01,2013-11-08 02:27:00,
2013-11-07 18:32:00,58.0,24.2,30.07,South,169,1.0,2.0,27,0.00,,---,0.00,VWS V14.01,2013-11-08 02:32:00,
2013-11-07 18:37:00,57.8,24.1,30.07,SSE,160,2.0,4.0,27,0.00,,---,0.00,VWS V14.01,2013-11-08 02:37:00,
2013-11-07 18:42:00,57.7,24.0,30.07,SSE,161,2.0,4.0,27,0.00,,---,0.00,VWS V14.01,2013-11-08 02:42:00,
2013-11-07 18:47:00,57.6,23.0,30.07,South,169,3.0,3.0,26,0.00,,---,0.00,VWS V14.01,2013-11-08 02:47:00,
2013-11-07 18:52:00,57.7,23.1,30.07,SSE,165,3.0,4.0,26,0.00,,---,0.00,VWS V14.01,2013-11-08 02:52:00,
2013-11-07 18:57:00,57.8,23.2,30.07,SSE,155,2.0,4.0,26,0.00,,---,0.00,VWS V14.01,2013-11-08 02:57:00,
2013-11-07 19:02:00,58.0,22.4,30.07,SSE,165,3.0,3.0,25,0.00,,---,0.00,VWS V14.01,2013-11-08 03:02:00,
2013-11-07 19:07:00,58.0,22.4,30.07,SSE,156,0.0,3.0,25,0.00,,---,0.00,VWS V14.01,2013-11-08 03:07:00,
2013-11-07 19:12:00,57.8,22.2,30.07,SE,139,0.0,3.0,25,0.00,,---,0.00,VWS V14.01,2013-11-08 03:12:00,
2013-11-07 19:17:00,57.8,22.2,30.07,SSE,150,0.0,2.0,25,0.00,,---,0.00,VWS V14.01,2013-11-08 03:17:00,
2013-11-07 19:22:00,57.7,22.1,30.07,SSE,155,0.0,2.0,25,0.00,,---,0.00,VWS V14.01,2013-11-08 03:22:00,
2013-11-07 19:27:00,58.0,22.4,30.07,SSE,166,0.0,2.0,25,0.00,,---,0.00,VWS V14.01,2013-11-08 03:27:00,
2013-11-07 19:32:00,58.1,22.5,30.07,SSE,161,4.0,5.0,25,0.00,,---,0.00,VWS V14.01,2013-11-08 03:32:00,
2013-11-07 19:37:00,58.0,22.4,30.07,South,176,2.0,5.0,25,0.00,,---,0.00,VWS V14.01,2013-11-08 03:37:00,
2013-11-07 19:42:00,57.8,22.2,30.07,SSW,193,2.0,5.0,25,0.00,,---,0.00,VWS V14.01,2013-11-08 03:42:00,
2013-11-07 19:48:00,57.5,22.9,30.07,SSE,166,1.0,2.0,26,0.00,,---,0.00,VWS V14.01,2013-11-08 03:48:00,
2013-11-07 19:53:00,56.9,23.3,30.07,SSE,156,2.0,3.0,27,0.00,,---,0.00,VWS V14.01,2013-11-08 03:53:00,
2013-11-07 19:58:00,56.7,23.1,30.07,SSE,163,2.0,3.0,27,0.00,,---,0.00,VWS V14.01,2013-11-08 03:58:00,
2013-11-07 20:03:00,56.6,23.0,30.07,South,188,2.0,3.0,27,0.00,,---,0.00,VWS V14.01,2013-11-08 04:03:00,
2013-11-07 20:08:00,56.5,22.9,30.07,SW,214,2.0,3.0,27,0.00,,---,0.00,VWS V14.01,2013-11-08 04:08:00,
2013-11-07 20:13:00,55.5,23.0,30.07,WNW,300,2.0,4.0,28,0.00,,---,0.00,VWS V14.01,2013-11-08 04:13:00,
2013-11-07 20:18:00,54.7,23.9,30.07,WNW,300,0.0,1.0,30,0.00,,---,0.00,VWS V14.01,2013-11-08 04:18:00,
2013-11-07 20:23:00,54.5,23.7,30.07,SW,224,1.0,2.0,30,0.00,,---,0.00,VWS V14.01,2013-11-08 04:23:00,
2013-11-07 20:28:00,54.0,24.8,30.07,SW,224,0.0,2.0,32,0.00,,---,0.00,VWS V14.01,2013-11-08 04:28:00,
2013-11-07 20:33:00,53.3,25.0,30.07,SSW,194,1.0,1.0,33,0.00,,---,0.00,VWS V14.01,2013-11-08 04:33:00,
2013-11-07 20:38:00,52.6,23.6,30.07,South,190,0.0,1.0,32,0.00,,---,0.00,VWS V14.01,2013-11-08 04:38:00,
2013-11-07 20:43:00,52.4,21.9,30.06,South,188,0.0,1.0,30,0.00,,---,0.00,VWS V14.01,2013-11-08 04:43:00,
2013-11-07 20:48:00,52.4,24.2,30.07,SSE,162,0.0,0.0,33,0.00,,---,0.00,VWS V14.01,2013-11-08 04:48:00,
2013-11-07 20:53:00,52.2,24.7,30.07,SSE,162,0.0,0.0,34,0.00,,---,0.00,VWS V14.01,2013-11-08 04:53:00,
2013-11-07 20:58:00,52.2,24.7,30.07,SSE,162,0.0,0.0,34,0.00,,---,0.00,VWS V14.01,2013-11-08 04:58:00,
2013-11-07 21:01:00,52.2,24.7,30.07,SSE,162,0.0,0.0,34,0.00,,---,0.00,VWS V14.01,2013-11-08 05:01:00,
2013-11-07 21:02:00,52.1,24.6,30.07,SSE,162,0.0,0.0,34,0.00,,---,0.00,VWS V14.01,2013-11-08 05:02:00,
2013-11-07 21:03:00,52.1,24.6,30.07,SSE,162,0.0,0.0,34,0.00,,---,0.00,VWS V14.01,2013-11-08 05:03:00,
2013-11-07 21:05:00,51.8,25.0,30.07,SSE,162,0.0,0.0,35,0.00,,---,0.00,VWS V14.01,2013-11-08 05:05:00,
2013-11-07 21:06:00,51.8,25.0,30.07,SSE,162,0.0,0.0,35,0.00,,---,0.00,VWS V14.01,2013-11-08 05:06:00,
2013-11-07 21:11:00,51.7,25.0,30.07,SSE,153,0.0,0.0,35,0.00,,---,0.00,VWS V14.01,2013-11-08 05:11:00,
2013-11-07 21:16:00,51.6,24.9,30.07,SSE,148,0.0,1.0,35,0.00,,---,0.00,VWS V14.01,2013-11-08 05:16:00,
2013-11-07 21:21:00,51.6,24.2,30.07,SSE,148,0.0,1.0,34,0.00,,---,0.00,VWS V14.01,2013-11-08 05:21:00,
2013-11-07 21:26:00,51.4,24.0,30.07,SE,136,1.0,1.0,34,0.00,,---,0.00,VWS V14.01,2013-11-08 05:26:00,
2013-11-07 21:31:00,51.8,24.3,30.07,SE,131,0.0,1.0,34,0.00,,---,0.00,VWS V14.01,2013-11-08 05:31:00,
2013-11-07 21:36:00,52.0,24.5,30.07,SE,131,0.0,1.0,34,0.00,,---,0.00,VWS V14.01,2013-11-08 05:36:00,
2013-11-07 21:41:00,51.6,24.9,30.07,SE,131,0.0,1.0,35,0.00,,---,0.00,VWS V14.01,2013-11-08 05:41:00,
2013-11-07 21:46:00,51.3,24.6,30.07,SE,131,0.0,0.0,35,0.00,,---,0.00,VWS V14.01,2013-11-08 05:46:00,
2013-11-07 21:51:00,50.8,24.1,30.07,South,169,0.0,0.0,35,0.00,,---,0.00,VWS V14.01,2013-11-08 05:51:00,
2013-11-07 21:56:00,50.6,24.6,30.07,SSE,165,0.0,0.0,36,0.00,,---,0.00,VWS V14.01,2013-11-08 05:56:00,
2013-11-07 22:01:00,51.1,24.4,30.07,SSE,164,0.0,0.0,35,0.00,,---,0.00,VWS V14.01,2013-11-08 06:01:00,
2013-11-07 22:06:00,51.0,24.3,30.07,SSE,163,0.0,0.0,35,0.00,,---,0.00,VWS V14.01,2013-11-08 06:06:00,
2013-11-07 22:12:00,51.1,24.4,30.07,SSE,155,1.0,2.0,35,0.00,,---,0.00,VWS V14.01,2013-11-08 06:12:00,
2013-11-07 22:17:00,51.6,24.2,30.07,SSE,166,0.0,0.0,34,0.00,,---,0.00,VWS V14.01,2013-11-08 06:17:00,
2013-11-07 22:22:00,51.8,23.6,30.07,SSE,155,0.0,0.0,33,0.00,,---,0.00,VWS V14.01,2013-11-08 06:22:00,
2013-11-07 22:27:00,52.2,24.0,30.07,SE,138,0.0,0.0,33,0.00,,---,0.00,VWS V14.01,2013-11-08 06:27:00,
2013-11-07 22:32:00,52.3,24.1,30.07,SE,131,0.0,0.0,33,0.00,,---,0.00,VWS V14.01,2013-11-08 06:32:00,
2013-11-07 22:37:00,52.1,23.9,30.07,SE,131,0.0,0.0,33,0.00,,---,0.00,VWS V14.01,2013-11-08 06:37:00,
2013-11-07 22:42:00,52.0,24.5,30.07,SE,137,0.0,0.0,34,0.00,,---,0.00,VWS V14.01,2013-11-08 06:42:00,
2013-11-07 22:47:00,52.1,23.9,30.07,SSE,160,0.0,0.0,33,0.00,,---,0.00,VWS V14.01,2013-11-08 06:47:00,
2013-11-07 22:52:00,51.9,23.7,30.07,SE,145,0.0,0.0,33,0.00,,---,0.00,VWS V14.01,2013-11-08 06:52:00,
2013-11-07 22:57:00,51.7,23.5,30.07,SE,136,0.0,0.0,33,0.00,,---,0.00,VWS V14.01,2013-11-08 06:57:00,
2013-11-07 23:02:00,51.9,23.7,30.07,SSE,155,0.0,0.0,33,0.00,,---,0.00,VWS V14.01,2013-11-08 07:02:00,
2013-11-07 23:07:00,51.7,24.3,30.07,SE,142,0.0,0.0,34,0.00,,---,0.00,VWS V14.01,2013-11-08 07:07:00,
2013-11-07 23:12:00,51.8,23.6,30.06,SE,131,0.0,1.0,33,0.00,,---,0.00,VWS V14.01,2013-11-08 07:12:00,
2013-11-07 23:17:00,52.0,23.8,30.06,SSE,150,0.0,0.0,33,0.00,,---,0.00,VWS V14.01,2013-11-08 07:17:00,
2013-11-07 23:22:00,51.8,23.6,30.06,SE,139,0.0,0.0,33,0.00,,---,0.00,VWS V14.01,2013-11-08 07:22:00,
2013-11-07 23:27:00,51.5,24.1,30.06,SE,141,0.0,0.0,34,0.00,,---,0.00,VWS V14.01,2013-11-08 07:27:00,
2013-11-07 23:32:00,51.5,23.4,30.06,SE,143,0.0,0.0,33,0.00,,---,0.00,VWS V14.01,2013-11-08 07:32:00,
2013-11-07 23:37:00,51.6,23.5,30.05,SSE,150,1.0,2.0,33,0.00,,---,0.00,VWS V14.01,2013-11-08 07:37:00,
2013-11-07 23:42:00,51.4,23.3,30.05,SSE,155,1.0,2.0,33,0.00,,---,0.00,VWS V14.01,2013-11-08 07:42:00,
2013-11-07 23:47:00,51.0,23.6,30.05,SSE,155,1.0,1.0,34,0.00,,---,0.00,VWS V14.01,2013-11-08 07:47:00,
2013-11-07 23:52:00,50.8,23.5,30.05,SSE,152,2.0,2.0,34,0.00,,---,0.00,VWS V14.01,2013-11-08 07:52:00,
2013-11-07 23:57:00,51.0,22.9,30.05,SE,145,1.0,3.0,33,0.00,,---,0.00,VWS V14.01,2013-11-08 07:57:00,